Location: Berlise
(49.6641°N, 4.1077°E)
Time: 23:50:38
(UTC+00:00)

ADEOS - Pass Details

Date: 27 January 2021
Orbit: 792 x 794 km, 98.9° (Epoch: 01 March)

Event Time Altitude Azimuth Distance (km) Brightness Sun altitude
Rises 04:35:40 0° 16° (NNE) 3,306 7.0 -26.9°
Reaches altitude 10° 04:38:01 10° 17° (NNE) 2,372 6.2 -26.5°
Maximum altitude 04:43:16 79° 105° (ESE) 813 3.6 -25.7°
Enters shadow 04:47:40 15° 191° (SSW) 2,042 5.6 -25.0°
